Flag for Brazil Weather past 2 weeks in São Paulo, São Paulo, Brazil

Now
59 °F

Passing clouds.


Feels Like: 59 °F
Forecast: 53 / 68 °F
Wind: 1 mph from North

Location: Sao Paulo Airport

Current Time: May 30, 2015 at 1:57:30 AM

Latest Report: May 30, 2015 at 1:00 AM


Visibility: N/A

Pressure: 30.04 "Hg

Humidity: 88%

Dew point: 55 °F

Location of São PauloLocation

Historic Weather in São Paulo — Graph

°F

São Paulo temperature yesterday

Maximum temperature yesterday: 72 °F (at 3:00 PM)
Minimum temperature yesterday: 61 °F (at 2:00 AM)
Average temperature yesterday: 64 °F

Past Weeks' High & Low Weather Summary

 TemperatureHumidityPressure
High82 °F (May 25, 3:00 PM)94% (May 18, 4:01 AM)30.36 "Hg (May 18, 4:01 AM)
Low57 °F (May 15, 1:00 AM)45% (May 25, 3:00 PM)29.95 "Hg (May 29, 2:00 PM)
Average67 °F75%30.18 "Hg
* Reported May 15 1:00 AM — May 30 1:00 AM, São Paulo, Weather by CustomWeather, © 2015

Note: Actual official high and low records may vary slightly from our data, if they occured in-between our weather recording intervals... More about our weather records

Advertising

São Paulo weather history for previous 24 hours

 ConditionsComfort  
Time TempWeatherWind HumidityBarometerVisibility
1:00 AM
Sat, May 30
59 °FPassing clouds.1 mph88%30.04 "HgN/A
12:00 AM59 °FPassing clouds.2 mph88%30.04 "HgN/A
11:00 PM
Fri, May 29
61 °FPartly cloudy.5 mph83%30.07 "HgN/A
10:00 PM61 °FPassing clouds.3 mph83%30.04 "HgN/A
9:00 PM61 °FClear.9 mph83%30.04 "Hg10 mi
8:00 PM64 °FClear.5 mph64%30.04 "Hg10 mi
7:00 PM66 °FClear.7 mph52%30.01 "Hg10 mi
6:00 PM66 °FPassing clouds.9 mph52%29.98 "HgN/A
5:00 PM68 °FPassing clouds.14 mph53%29.98 "HgN/A
4:00 PM70 °FScattered clouds.12 mph50%29.95 "HgN/A
3:00 PM72 °FScattered clouds.15 mph50%29.95 "HgN/A
2:00 PM70 °FPartly sunny.20 mph57%29.95 "HgN/A
1:00 PM66 °FScattered clouds.9 mph68%29.98 "HgN/A
12:00 PM68 °FScattered clouds.8 mph69%30.01 "HgN/A
11:00 AM66 °FPartly sunny.8 mph73%N/AN/A
10:00 AM63 °FPartly sunny.8 mph77%30.04 "HgN/A
9:00 AM64 °FMostly cloudy.8 mph78%30.04 "HgN/A
8:00 AM61 °FMostly cloudy.9 mph88%30.01 "Hg5 mi
7:00 AM61 °FCloudy.7 mph88%N/A4 mi
6:00 AM61 °FRain. Fog.6 mph88%N/A1 mi
5:00 AM61 °FPassing clouds.2 mph88%29.98 "HgN/A
4:03 AM61 °FMostly cloudy.6 mph88%29.98 "HgN/A
4:00 AM61 °FMostly cloudy.5 mph88%29.98 "HgN/A
3:00 AM61 °FLow clouds.7 mph88%29.98 "HgN/A
2:03 AM61 °FPassing clouds.6 mph88%30.01 "HgN/A
2:00 AM61 °FPartly cloudy.6 mph88%30.01 "HgN/A
1:00 AM63 °FMostly cloudy.5 mph83%30.04 "HgN/A
Weather by CustomWeather, © 2015

See weather overviewHow to use our weather pages